Hourly Data Report for October 24, 2015

All times are specified in Local Standard Time (LST). Add 1 hour to adjust for Daylight Saving Time where and when it is observed.

GJOA HAVEN A
NUNAVUT

68°38'08.000" N
95°51'01.000" W
46.90 m
2302337
71597
YHK

Download Data

Hourly Data (October 2015)
Hourly Data Report for October 24, 2015
Temp Definition
°C
Dew Point Temp Definition
°C
Rel Hum Definition
%
Wind Dir Definition
10's deg

Wind Spd Definition
km/h
Visibility Definition
km
Stn Press Definition
kPa
Hmdx Definition


Wind Chill Definition


Weather Definition


TIME
00:00 Legend Double Dagger -16.3 -17.7 89 34 24 2.4 100.73   -27 Snow
01:00 Legend Double Dagger -15.5 -17.3 86 32 26 16.1 100.68   -26 LegendNANA
02:00 Legend Double Dagger -16.6 -18.1 88 31 22 16.1 100.68   -27 LegendNANA
03:00 Legend Double Dagger -16.5 -18.2 87 33 34 14.5 100.62   -29 LegendNANA
04:00 Legend Double Dagger -16.5 -18.2 87 33 28 16.1 100.63   -28 LegendNANA
05:00 Legend Double Dagger -16.3 -18.1 86 31 21 8.1 100.57   -26 Snow
06:00 Legend Double Dagger -15.6 -17.0 89 30 28 8.1 100.47   -26 Snow
07:00 Legend Double Dagger -15.9 -17.5 88 28 24 16.1 100.41   -26 LegendNANA
08:00 Legend Double Dagger -14.8 -16.2 89 30 39 2.8 100.31   -27 Snow
09:00 Legend Double Dagger -14.3 -15.7 89 29 37 3.2 100.25   -26 Snow
10:00 Legend Double Dagger -14.0 -15.4 89 29 37 1.6 100.20   -26 Snow
11:00 Legend Double Dagger -13.4 -14.7 90 30 34 4.0 100.16   -25 Snow
12:00 Legend Double Dagger -12.1 -13.4 90 32 35 2.4 100.11   -23 Snow
13:00 Legend Double Dagger -12.0 -13.5 89 31 35 4.8 100.09   -23 Snow
14:00 Legend Double Dagger -12.9 -14.4 89 31 37 4.8 100.07   -24 Snow
15:00 Legend Double Dagger -12.5 -13.8 90 31 32 8.1 100.03   -23 Snow
16:00 Legend Double Dagger -13.0 -14.5 89 33 39 1.2 100.02   -25 Snow,Blowing Snow
17:00 Legend Double Dagger -14.1 -15.7 88 34 35 6.4 100.07   -26 Snow
18:00 Legend Double Dagger -14.1 -15.5 89 34 45 1.6 100.06   -27 Snow,Blowing Snow
19:00 Legend Double Dagger -15.6 -17.3 87 34 39 2.0 100.06   -28 Snow,Blowing Snow
20:00 Legend Double Dagger -15.9 -17.7 86 33 39 6.4 100.03   -29 Snow
21:00 Legend Double Dagger -15.1 -16.7 88 33 58 1.0 99.99   -30 Snow,Blowing Snow
22:00 Legend Double Dagger -16.8 -18.5 87 34 46 2.0 100.06   -31 Snow,Blowing Snow
23:00 Legend Double Dagger -17.4 -19.1 87 33 35 4.8 100.05   -30 Fog

Notes on Data Quality.

Legend

  • E = Estimated
  • M = Missing
  • NA = Not Available
  • ‡ = Partner data that is not subject to review by the National Climate Archives
Date modified: